DW5623 Weather Reports


time (UTC)temp
C
wind
direction
speed
KPH
gust
KPH
rain 1hr
cm
rain 24hr
cm
rain mn
cm
humidity
%
barometer
mb
20260506161548 11 271 3.2 19.3 0.00 0.48 0.41 83 1008.4
20260506160052 11 258 3.2 11.3 0.00 0.48 0.41 85 1008.2
20260506154546 11 0 1.6 17.7 0.00 0.48 0.41 88 1008.4
20260506153104 11 264 1.6 9.7 0.00 0.48 0.41 88 1008.4
20260506151548 11 0 0.0 8.0 0.00 0.48 0.41 88 1008.4
20260506150056 11 253 1.6 8.0 0.00 0.46 0.38 89 1008.5
20260506144553 11 0 0.0 4.8 0.00 0.46 0.38 89 1008.6
20260506143042 10 341 0.0 4.8 0.00 0.46 0.38 89 1008.3
20260506141541 10 342 3.2 17.7 0.08 0.46 0.38 89 1008.3
20260506140042 10 207 4.8 14.5 0.13 0.46 0.38 89 1008.2
20260506134546 10 252 4.8 16.1 0.18 0.46 0.38 88 1008.2
20260506133047 10 238 1.6 22.5 0.18 0.46 0.36 88 1008.4
20260506131551 10 221 6.4 17.7 0.18 0.38 0.30 87 1008.4
20260506130042 10 173 9.7 22.5 0.18 0.33 0.25 86 1008.2
20260506124542 10 201 9.7 22.5 0.13 0.28 0.18 85 1007.8
20260506123048 11 225 11.3 29.0 0.10 0.25 0.18 84 1007.2
20260506121545 12 194 16.1 37.0 0.05 0.18 0.10 80 1007.0
20260506120044 14 313 4.8 16.1 0.00 0.13 0.05 79 1006.4
20260506114544 14 221 1.6 12.9 0.00 0.15 0.05 77 1006.1
20260506113043 15 254 4.8 12.9 0.00 0.15 0.05 76 1005.8
20260506111549 15 221 3.2 16.1 0.00 0.15 0.05 78 1005.8
20260506110045 15 277 3.2 11.3 0.00 0.15 0.05 79 1005.9
20260506104545 14 336 3.2 11.3 0.00 0.15 0.05 80 1005.8
20260506103051 14 267 4.8 12.9 0.00 0.15 0.05 78 1005.9
20260506101541 14 274 1.6 6.4 0.00 0.15 0.05 78 1005.8
20260506100048 14 270 0.0 6.4 0.00 0.15 0.05 77 1005.7
20260506094546 14 285 0.0 9.7 0.00 0.18 0.03 76 1006.0
20260506093046 14 166 1.6 6.4 0.00 0.18 0.03 77 1006.1
20260506091550 13 265 1.6 6.4 0.00 0.18 0.03 79 1005.9
20260506090042 14 0 0.0 4.8 0.00 0.18 0.03 80 1005.7
20260506084546 13 349 0.0 3.2 0.00 0.18 0.00 79 1005.9
20260506083049 13 0 0.0 3.2 0.00 0.18 0.00 80 1005.9
20260506081547 13 0 0.0 3.2 0.00 0.18 0.00 83 1005.9
20260506073042 13 0 0.0 3.2 0.00 0.18 0.00 88 1006.0
20260506071540 12 273 0.0 1.6 0.00 0.18 0.00 89 1006.0
20260506061544 11 273 0.0 3.2 0.00 0.18 0.00 90 1006.0
20260506044549 11 0 0.0 1.6 0.00 0.18 0.00 87 1006.0
20260506043047 11 0 0.0 1.6 0.00 0.18 0.00 87 1006.1
20260506041543 11 148 0.0 3.2 0.00 0.18 0.00 87 1006.1
20260506040044 11 0 0.0 3.2 0.00 0.18 0.00 87 1006.3
20260506034557 11 0 0.0 1.6 0.00 0.18 0.00 87 1006.6
20260506033048 11 0 0.0 1.6 0.00 0.18 0.00 87 1006.7
20260506031545 11 0 0.0 1.6 0.00 0.18 0.00 87 1006.8
20260506030045 11 0 0.0 3.2 0.00 0.18 0.00 87 1006.9
20260506024557 11 198 0.0 3.2 0.00 0.18 0.00 86 1007.0
20260506023042 12 78 0.0 4.8 0.00 0.18 0.00 87 1007.2
20260506021545 12 351 0.0 3.2 0.00 0.18 0.00 87 1007.3
20260506020043 12 0 0.0 1.6 0.00 0.18 0.00 87 1007.4
20260506014546 12 173 0.0 4.8 0.00 0.18 0.00 86 1007.5
20260506013059 12 0 0.0 0.0 0.00 0.18 0.00 86 1007.7
20260506011610 12 324 0.0 1.6 0.00 0.18 0.00 86 1007.7
20260506010044 12 0 0.0 3.2 0.00 0.18 0.00 86 1007.8
20260506004542 12 0 0.0 3.2 0.00 0.18 0.00 85 1007.9
20260506003041 12 98 0.0 4.8 0.00 0.18 0.00 85 1008.1
20260506001548 12 128 0.0 11.3 0.00 0.18 0.00 85 1008.3
20260506000050 12 138 1.6 6.4 0.00 0.18 0.00 85 1008.4
20260505234544 12 0 0.0 3.2 0.00 0.18 0.00 85 1008.4
20260505233041 12 0 0.0 3.2 0.00 0.18 0.00 84 1008.5
20260505231545 12 0 1.6 4.8 0.00 0.18 0.00 84 1008.6
20260505230057 12 269 0.0 6.4 0.00 0.18 0.00 83 1008.7
20260505224546 12 134 1.6 8.0 0.00 0.18 0.00 82 1008.7
20260505223102 12 162 0.0 12.9 0.00 0.18 0.00 82 1008.6
20260505221542 12 0 0.0 8.0 0.03 0.18 0.00 82 1008.8
20260505220048 12 180 4.8 12.9 0.00 0.15 0.00 81 1008.8
20260505214544 12 215 4.8 14.5 0.03 0.15 0.15 82 1009.0
20260505213054 13 0 0.0 4.8 0.03 0.15 0.15 81 1009.2
20260505211550 13 160 0.0 4.8 0.00 0.13 0.13 80 1009.3
20260505210041 13 150 0.0 4.8 0.00 0.13 0.13 78 1009.3
20260505204547 13 156 1.6 6.4 0.00 0.10 0.10 76 1009.3
20260505203051 14 204 0.0 6.4 0.00 0.10 0.10 75 1009.2
20260505201546 14 182 3.2 14.5 0.00 0.10 0.10 72 1009.2
20260505200042 14 202 6.4 11.3 0.00 0.10 0.10 71 1008.9
20260505194550 14 194 3.2 12.9 0.00 0.10 0.10 73 1008.8
20260505193041 13 148 8.0 22.5 0.00 0.10 0.10 74 1008.6
20260505191541 13 194 6.4 16.1 0.00 0.10 0.10 77 1008.7
20260505190047 13 181 4.8 17.7 0.00 0.10 0.10 78 1008.5
20260505184544 13 188 4.8 17.7 0.00 0.10 0.10 78 1008.2
20260505183049 13 179 3.2 17.7 0.00 0.10 0.10 80 1008.5
20260505181541 13 184 4.8 14.5 0.00 0.10 0.10 82 1008.6
20260505180042 13 200 4.8 14.5 0.00 0.10 0.10 82 1008.6
20260505174548 13 160 4.8 14.5 0.00 0.10 0.10 82 1008.7
20260505173048 13 0 0.0 12.9 0.03 0.10 0.10 82 1008.6
20260505171541 13 137 1.6 6.4 0.03 0.10 0.10 82 1008.4
20260505170049 13 0 0.0 3.2 0.03 0.10 0.10 81 1008.5
20260505164558 14 163 3.2 14.5 0.00 0.08 0.08 78 1008.1
20260505163055 15 188 3.2 12.9 0.00 0.08 0.08 75 1008.4